Flag for Poland Weather past 2 weeks in Wroclaw, Poland

Now
39 °F

Clear.


Feels Like: 32 °F
Forecast: 37 / 47 °F
Wind: 12 mph from Northwest

Location: Wroclaw Ii

Current Time: Mar 31, 2015 at 3:21:11 AM

Latest Report: Mar 31, 2015 at 3:00 AM


Visibility: 10 mi

Pressure: 29.68 "Hg

Humidity: 70%

Dew point: 30 °F

Location of WroclawLocation

Historic Weather in Wroclaw — Graph

°F

Wroclaw temperature yesterday

Maximum temperature yesterday: 52 °F (at 1:30 AM)
Minimum temperature yesterday: 41 °F (at 12:30 PM)
Average temperature yesterday: 47 °F

Past Weeks' High & Low Weather Summary

 TemperatureHumidityPressure
High66 °F (Mar 25, 2:30 PM)94% (Mar 26, 8:30 AM)30.54 "Hg (Mar 26, 8:30 AM)
Low27 °F (Mar 23, 1:00 AM)22% (Mar 18, 12:30 PM)29.18 "Hg (Mar 30, 3:00 AM)
Average45 °F65%30.03 "Hg
* Reported Mar 16 1:00 AM — Mar 31 2:00 AM, Wroclaw, Weather by CustomWeather, © 2015

Note: Actual official high and low records may vary slightly from our data, if they occured in-between our weather recording intervals... More about our weather records

Advertising

Wroclaw weather history for previous 24 hours

 ConditionsComfort  
Time TempWeatherWind HumidityBarometerVisibility
2:00 AM
Tue, Mar 31
39 °FClear.16 mph70%29.71 "Hg10 mi
1:30 AM41 °FClear.17 mph66%29.68 "Hg10 mi
1:00 AM41 °FClear.18 mph66%29.68 "Hg10 mi
12:30 AM41 °FClear.18 mph70%29.68 "Hg10 mi
12:00 AM43 °FPassing clouds.20 mph66%29.65 "HgN/A
11:30 PM
Mon, Mar 30
43 °FPassing clouds.18 mph66%29.65 "HgN/A
11:00 PM41 °FClear.18 mph70%29.62 "Hg10 mi
10:30 PM43 °FClear.21 mph66%29.62 "Hg10 mi
10:00 PM43 °FPassing clouds.21 mph66%29.62 "HgN/A
9:30 PM43 °FClear.24 mph66%29.59 "Hg10 mi
9:00 PM45 °FPassing clouds.18 mph61%29.56 "HgN/A
8:30 PM45 °FPassing clouds.21 mph61%29.53 "HgN/A
8:00 PM46 °FScattered clouds.18 mph57%29.53 "HgN/A
7:30 PM46 °FPartly sunny.18 mph62%29.50 "HgN/A
7:00 PM46 °FScattered clouds.21 mph66%29.47 "HgN/A
6:30 PM46 °FScattered clouds.25 mph66%29.47 "HgN/A
6:00 PM46 °FSprinkles. Scattered clouds.20 mph66%29.45 "HgN/A
5:30 PM46 °FPartly sunny.23 mph62%29.45 "HgN/A
5:00 PM45 °FSprinkles. Broken clouds.20 mph71%29.42 "HgN/A
4:30 PM45 °FSprinkles. Partly sunny.33 mph71%29.42 "HgN/A
4:00 PM48 °FScattered clouds.16 mph62%29.39 "HgN/A
3:30 PM48 °FScattered clouds.23 mph62%29.39 "HgN/A
3:00 PM45 °FScattered clouds.22 mph71%29.39 "HgN/A
2:30 PM43 °FScattered clouds.29 mph76%29.39 "HgN/A
2:00 PM45 °FSprinkles. Partly sunny.33 mph66%29.36 "HgN/A
1:30 PM48 °FPartly sunny.29 mph58%29.33 "HgN/A
1:00 PM45 °FPartly sunny.22 mph71%29.36 "HgN/A
12:30 PM41 °FScattered clouds.23 mph81%29.33 "HgN/A
12:00 PM52 °FScattered clouds.23 mph47%29.30 "HgN/A
11:30 AM52 °FPassing clouds.18 mph47%29.30 "HgN/A
11:00 AM50 °FPassing clouds.21 mph50%29.30 "HgN/A
10:30 AM52 °FPassing clouds.22 mph50%29.30 "HgN/A
10:00 AM50 °FPassing clouds.15 mph54%29.30 "HgN/A
9:30 AM50 °FPassing clouds.17 mph54%29.27 "HgN/A
9:00 AM48 °FScattered clouds.20 mph58%29.27 "HgN/A
8:30 AM48 °FPartly sunny.18 mph58%29.30 "HgN/A
8:00 AM46 °FPartly sunny.13 mph66%29.30 "HgN/A
7:30 AM46 °FPassing clouds.15 mph66%29.27 "HgN/A
7:00 AM46 °FPassing clouds.15 mph66%29.27 "HgN/A
6:30 AM46 °FPassing clouds.16 mph66%29.27 "HgN/A
6:00 AM46 °FPassing clouds.21 mph71%29.24 "HgN/A
5:30 AM48 °FSprinkles. Passing clouds.26 mph66%29.24 "HgN/A
5:00 AM48 °FPassing clouds.16 mph71%29.21 "HgN/A
4:30 AM48 °FClear.15 mph76%29.21 "Hg10 mi
4:00 AM48 °FPassing clouds.15 mph76%29.21 "HgN/A
3:30 AM50 °FLots of rain. Passing clouds.15 mph88%29.21 "Hg4 mi
3:00 AM52 °FLight rain. Clear.10 mph77%29.18 "HgN/A
Weather by CustomWeather, © 2015

See weather overviewHow to use our weather pages